TimePDT,TemperatureF,Dew PointF,Humidity,Sea Level PressureIn,VisibilityMPH,Wind Direction,Wind SpeedMPH,Gust SpeedMPH,PrecipitationIn,Events,Conditions,WindDirDegrees,DateUTC
12:53 AM,68.0,44.1,42,29.94,10.0,NW,11.5,-,N/A,,Clear,320,2012-10-16 07:53:00
1:53 AM,68.0,42.1,39,29.95,10.0,Variable,3.5,-,N/A,,Clear,0,2012-10-16 08:53:00
2:53 AM,66.9,42.1,40,29.94,10.0,WNW,6.9,-,N/A,,Clear,290,2012-10-16 09:53:00
3:53 AM,68.0,41.0,37,29.92,10.0,North,9.2,-,N/A,,Clear,350,2012-10-16 10:53:00
4:53 AM,64.4,42.8,45,29.93,10.0,NW,8.1,-,N/A,,Clear,310,2012-10-16 11:53:00
5:53 AM,62.1,44.1,52,29.94,10.0,WNW,3.5,-,N/A,,Clear,290,2012-10-16 12:53:00
6:53 AM,62.1,43.0,50,29.94,10.0,Calm,Calm,-,N/A,,Clear,0,2012-10-16 13:53:00
7:53 AM,63.0,45.0,52,29.96,10.0,Calm,Calm,-,N/A,,Clear,0,2012-10-16 14:53:00
8:53 AM,68.0,45.0,43,29.96,10.0,Calm,Calm,-,N/A,,Clear,0,2012-10-16 15:53:00
9:53 AM,73.9,43.0,33,29.96,10.0,North,4.6,-,N/A,,Clear,360,2012-10-16 16:53:00
10:53 AM,75.0,44.1,33,29.96,10.0,Calm,Calm,-,N/A,,Clear,0,2012-10-16 17:53:00
11:53 AM,78.1,42.1,28,29.94,10.0,Calm,Calm,-,N/A,,Clear,0,2012-10-16 18:53:00
12:53 PM,80.1,41.0,25,29.88,10.0,Calm,Calm,-,N/A,,Clear,0,2012-10-16 19:53:00
1:53 PM,82.0,41.0,23,29.84,10.0,Variable,3.5,-,N/A,,Clear,0,2012-10-16 20:53:00
2:53 PM,84.0,39.9,21,29.81,10.0,SE,3.5,-,N/A,,Clear,140,2012-10-16 21:53:00
3:53 PM,84.9,37.9,19,29.78,10.0,South,6.9,-,N/A,,Clear,190,2012-10-16 22:53:00
4:53 PM,84.9,37.9,19,29.76,10.0,South,3.5,-,N/A,,Clear,180,2012-10-16 23:53:00
5:53 PM,82.9,41.0,23,29.77,10.0,SSE,3.5,-,N/A,,Clear,160,2012-10-17 00:53:00
6:53 PM,79.0,44.1,29,29.78,10.0,East,3.5,-,N/A,,Clear,90,2012-10-17 01:53:00
7:53 PM,75.9,46.0,35,29.80,10.0,NW,5.8,-,N/A,,Clear,310,2012-10-17 02:53:00
8:53 PM,73.9,46.9,38,29.82,10.0,NNE,3.5,-,N/A,,Clear,30,2012-10-17 03:53:00
9:53 PM,72.0,50.0,46,29.82,10.0,WNW,4.6,-,N/A,,Clear,290,2012-10-17 04:53:00
10:53 PM,69.1,50.0,51,29.83,10.0,NW,5.8,-,N/A,,Clear,320,2012-10-17 05:53:00
11:53 PM,68.0,48.9,50,29.84,10.0,WNW,4.6,-,N/A,,Clear,300,2012-10-17 06:53:00